Погода в Сан-Северо

Италия     41°41′33″N   15°22′45″E
темп.,
°C
ветер,
м/с
пор.,
м/с
влажн.,
%
обл.,
%
осадки,
мм/ч
давл.,
гПа
погр.,
м
26 октября, вт
вт2623:00+14вюв117890 0.1 102143
02:00+13вюв228476 0.1 102124
05:00+13в2284100 0.0 102018
08:00+13всв1176100 0.0 101919
11:00+16в1265100 0.0 1020486
14:00+18с225598 0.0 10191101
17:00+15с3575100 0.2 1020371
20:00+14с2386100 1.5 1021208
27 октября, ср
ср2723:00+13с2390100 3.0 1022204
02:00+13ссз2290100 4.7 1022157
05:00+13с238897 0.2 1022170
08:00+13с2385100 0.2 1023205
11:00+14ссз2477100 0.0 1023494
14:00+16с4470100 0.1 1023901
17:00+15с447240 0.0 1022676
20:00+13с238271 0.0 102367
28 октября, чт
чт2823:00+12ссз2285100 0.0 102334
02:00+12с228657 0.0 102241
05:00+11с118893 0.0 102215
08:00+11с128449 0.0 102218
11:00+16ссз336397 0.0 1022773
14:00+18ссз335314 0.0 10211016
17:00+16с326312 0.0 1020509
20:00+13с12785 0.0 102129
29 октября, пт
пт2923:00+12всв11796 0.0 102012
02:00+12в227425 0.0 102016
05:00+11в22798 0.0 101923
08:00+11в238021 0.0 101954
11:00+18вюв475417 0.0 1019960
14:00+19юв575798 0.1 10181013
17:00+17вюв596799 0.0 1018520
20:00+16вюв487864 0.0 1019359
30 октября, сб
сб3023:00+16вюв478689 0.0 1019312
02:00+15юв479250 0.0 1019254
05:00+16юв3591100 0.0 1020201
08:00+16юв369162 0.1 1021286
11:00+19ююв35709 0.0 1021710
14:00+21ююв235952 0.0 10201159
17:00+20ююв23650 0.0 1020656
20:00+17ююв12790 0.0 102229